Location: Karlovy Vary
(50.2170°N, 12.9000°E)
Time: 09:33:50
(UTC+02:00)

ISS - Visible Passes

Search period start: 15 May 2021 00:00
Search period end: 25 May 2021 00:00
Orbit: 417 x 422 km, 51.6° (Epoch: 15 May)

Date Brightness Start Highest point End Pass type
(mag) Time Alt. Az. Time Alt. Az. Time Alt. Az.
15 May -3.7 00:28:00 10° W 00:31:22 78° N 00:34:45 10° ENE visible
15 May -3.6 02:04:57 10° WNW 02:08:20 74° N 02:11:43 10° E visible
15 May -3.4 03:41:51 10° W 03:45:03 42° SSW 03:48:17 10° SE visible
15 May -2.8 22:04:30 10° SSW 22:07:21 26° SE 22:10:13 10° E visible
15 May -3.9 23:40:32 10° WSW 23:43:54 88° SSE 23:47:17 10° ENE visible
16 May -3.5 01:17:29 10° W 01:20:51 68° N 01:24:12 10° E visible
16 May -3.8 02:54:21 10° WNW 02:57:40 58° SSW 03:01:00 10° SE visible
16 May -2.0 04:32:04 10° WSW 04:33:58 14° SW 04:35:52 10° S visible
16 May -3.9 22:53:06 10° WSW 22:56:28 70° SSE 22:59:50 10° ENE visible
17 May -3.4 00:29:58 10° W 00:33:20 66° N 00:36:43 10° E visible
17 May -3.9 02:06:52 10° WNW 02:10:15 77° SSW 02:13:37 10° ESE visible
17 May -2.5 03:44:05 10° W 03:46:42 21° SW 03:49:18 10° SSE visible
17 May -3.6 22:05:46 10° SW 22:09:03 52° SSE 22:12:20 10° ENE visible
17 May -3.5 23:42:29 10° W 23:45:51 69° N 23:49:13 10° ENE visible
18 May -3.8 01:19:24 10° WNW 01:22:47 86° NNE 01:22:53 83° ENE visible
18 May -3.6 22:54:58 10° W 22:58:20 77° NNW 23:01:44 10° ENE visible
19 May -3.6 00:31:56 10° WNW 00:35:19 74° N 00:36:27 38° E visible
19 May -1.4 02:08:49 10° W 02:09:22 14° W 02:09:22 14° W visible
19 May -3.8 22:07:30 10° WSW 22:10:52 89° SSE 22:14:15 10° ENE visible
19 May -3.5 23:44:26 10° W 23:47:48 68° N 23:50:16 17° E visible
20 May -2.4 01:21:18 10° WNW 01:23:11 29° W 01:23:11 29° W visible
20 May -3.4 22:56:55 10° W 23:00:17 66° N 23:03:38 10° E visible
21 May -3.9 00:33:49 10° WNW 00:37:05 76° SW 00:37:05 76° SW visible
21 May -3.4 22:09:24 10° W 22:12:46 69° N 22:16:08 10° ENE visible
21 May -3.8 23:46:20 10° WNW 23:49:42 86° N 23:51:02 34° ESE visible
22 May -1.4 01:23:19 10° W 01:23:57 14° W 01:23:57 14° W visible
22 May -3.6 22:58:51 10° WNW 23:02:13 74° N 23:05:01 14° E visible
23 May -2.6 00:35:44 10° W 00:37:56 32° WSW 00:37:56 32° WSW visible
23 May -3.4 22:11:20 10° W 22:14:41 68° N 22:18:03 10° E visible
23 May -3.7 23:48:12 10° WNW 23:51:31 58° SSW 23:51:57 52° SSE visible
24 May -3.9 23:00:42 10° WNW 23:04:04 77° SSW 23:05:59 24° ESE visible
